Time,TemperatureF,DewpointF,PressureIn,WindDirection,WindDirectionDegrees,WindSpeedMPH,WindSpeedGustMPH,Humidity,HourlyPrecipIn,Conditions,Clouds,dailyrainin,SoftwareType,DateUTC
2014-12-17 00:07:00,43.5,43.2,29.63,West,270,3.7,-999.0,99,-99.99,,,0.00,Acu-Link.com,2014-12-17 05:07:00,
2014-12-17 00:23:00,43.2,42.9,29.62,WNW,292,2.7,-999.0,99,-99.99,,,0.00,Acu-Link.com,2014-12-17 05:23:00,
2014-12-17 00:38:00,42.6,42.3,29.62,WNW,292,4.2,-999.0,99,-99.99,,,0.00,Acu-Link.com,2014-12-17 05:38:00,
2014-12-17 00:53:00,42.3,42.0,29.61,WNW,292,6.3,-999.0,99,-99.99,,,0.00,Acu-Link.com,2014-12-17 05:53:00,
2014-12-17 01:08:00,41.9,41.6,29.62,WNW,292,3.7,-999.0,99,-99.99,,,0.00,Acu-Link.com,2014-12-17 06:08:00,
2014-12-17 01:24:00,41.7,41.4,29.62,WSW,247,2.7,-999.0,99,-99.99,,,0.00,Acu-Link.com,2014-12-17 06:24:00,
2014-12-17 01:39:00,41.2,40.9,29.62,WNW,292,1.7,-999.0,99,-99.99,,,0.00,Acu-Link.com,2014-12-17 06:39:00,
2014-12-17 01:54:00,40.6,40.3,29.63,West,270,0.0,-999.0,99,-99.99,,,0.00,Acu-Link.com,2014-12-17 06:54:00,
2014-12-17 02:09:00,40.5,40.2,29.63,WNW,292,2.2,-999.0,99,-99.99,,,0.00,Acu-Link.com,2014-12-17 07:09:00,
2014-12-17 02:24:00,40.5,40.2,29.63,WNW,292,2.2,-999.0,99,-99.99,,,0.00,Acu-Link.com,2014-12-17 07:24:00,
2014-12-17 02:40:00,40.5,40.2,29.63,West,270,3.7,-999.0,99,-99.99,,,0.00,Acu-Link.com,2014-12-17 07:40:00,
2014-12-17 02:55:00,41.0,40.7,29.64,NW,315,5.3,-999.0,99,-99.99,,,0.00,Acu-Link.com,2014-12-17 07:55:00,
2014-12-17 03:10:00,41.2,40.9,29.63,West,270,5.3,-999.0,99,-99.99,,,0.00,Acu-Link.com,2014-12-17 08:10:00,
2014-12-17 03:26:00,41.4,41.1,29.63,West,270,4.7,-999.0,99,-99.99,,,0.00,Acu-Link.com,2014-12-17 08:26:00,
2014-12-17 03:41:00,41.5,41.2,29.64,West,270,2.7,-999.0,99,-99.99,,,0.00,Acu-Link.com,2014-12-17 08:41:00,
2014-12-17 03:56:00,41.2,40.9,29.64,SW,225,2.7,-999.0,99,-99.99,,,0.00,Acu-Link.com,2014-12-17 08:56:00,
2014-12-17 04:11:00,40.8,40.5,29.64,SW,225,2.7,-999.0,99,-99.99,,,0.00,Acu-Link.com,2014-12-17 09:11:00,
2014-12-17 04:42:00,39.9,39.6,29.64,South,180,0.0,-999.0,99,-99.99,,,0.00,Acu-Link.com,2014-12-17 09:42:00,
2014-12-17 04:57:00,39.6,39.3,29.65,SSW,202,1.7,-999.0,99,-99.99,,,0.00,Acu-Link.com,2014-12-17 09:57:00,
2014-12-17 05:12:00,44.1,43.8,29.64,South,180,1.1,-999.0,99,-99.99,,,0.00,Acu-Link.com,2014-12-17 10:12:00,
2014-12-17 05:27:00,39.6,39.3,29.65,SSE,157,0.0,-999.0,99,-99.99,,,0.00,Acu-Link.com,2014-12-17 10:27:00,
2014-12-17 05:42:00,39.6,39.3,29.66,South,180,0.0,-999.0,99,-99.99,,,0.00,Acu-Link.com,2014-12-17 10:42:00,
2014-12-17 05:58:00,39.0,38.7,29.65,West,270,1.7,-999.0,99,-99.99,,,0.00,Acu-Link.com,2014-12-17 10:58:00,
2014-12-17 06:13:00,39.4,39.1,29.66,West,270,1.7,-999.0,99,-99.99,,,0.00,Acu-Link.com,2014-12-17 11:13:00,
2014-12-17 06:28:00,39.0,38.7,29.66,WSW,247,1.7,-999.0,99,-99.99,,,0.00,Acu-Link.com,2014-12-17 11:28:00,
2014-12-17 06:43:00,39.0,38.7,29.66,SW,225,1.7,-999.0,99,-99.99,,,0.00,Acu-Link.com,2014-12-17 11:43:00,
2014-12-17 06:58:00,39.2,38.9,29.67,WSW,247,1.1,-999.0,99,-99.99,,,0.00,Acu-Link.com,2014-12-17 11:58:00,
2014-12-17 07:14:00,38.8,38.5,29.66,West,270,2.2,-999.0,99,-99.99,,,0.00,Acu-Link.com,2014-12-17 12:14:00,
2014-12-17 07:29:00,39.2,38.9,29.67,SW,225,0.0,-999.0,99,-99.99,,,0.00,Acu-Link.com,2014-12-17 12:29:00,
2014-12-17 07:44:00,40.5,40.2,29.68,South,180,2.2,-999.0,99,-99.99,,,0.00,Acu-Link.com,2014-12-17 12:44:00,
2014-12-17 07:59:00,42.1,41.8,29.68,SSE,157,0.0,-999.0,99,-99.99,,,0.00,Acu-Link.com,2014-12-17 12:59:00,
2014-12-17 08:15:00,43.7,42.6,29.69,SSW,202,1.7,-999.0,96,-99.99,,,0.00,Acu-Link.com,2014-12-17 13:15:00,
2014-12-17 08:30:00,44.1,42.8,29.69,SW,225,4.2,-999.0,95,-99.99,,,0.00,Acu-Link.com,2014-12-17 13:30:00,
2014-12-17 08:45:00,45.0,43.4,29.70,SSW,202,3.2,-999.0,94,-99.99,,,0.00,Acu-Link.com,2014-12-17 13:45:00,
2014-12-17 09:00:00,45.3,43.1,29.70,West,270,3.7,-999.0,92,-99.99,,,0.00,Acu-Link.com,2014-12-17 14:00:00,
2014-12-17 09:15:00,47.5,43.5,29.70,WSW,247,8.9,-999.0,86,-99.99,,,0.00,Acu-Link.com,2014-12-17 14:15:00,
2014-12-17 09:31:00,49.1,43.5,29.70,West,270,5.8,-999.0,81,-99.99,,,0.00,Acu-Link.com,2014-12-17 14:31:00,
2014-12-17 09:46:00,49.8,42.9,29.71,West,270,8.9,-999.0,77,-99.99,,,0.00,Acu-Link.com,2014-12-17 14:46:00,
2014-12-17 10:01:00,50.4,42.8,29.71,West,270,9.4,-999.0,75,-99.99,,,0.00,Acu-Link.com,2014-12-17 15:01:00,
2014-12-17 10:16:00,51.4,42.7,29.71,WNW,292,4.2,-999.0,72,-99.99,,,0.00,Acu-Link.com,2014-12-17 15:16:00,
2014-12-17 10:31:00,51.3,41.9,29.70,NNW,337,4.7,-999.0,70,-99.99,,,0.00,Acu-Link.com,2014-12-17 15:31:00,
2014-12-17 10:47:00,52.0,42.1,29.71,SW,225,6.8,-999.0,69,-99.99,,,0.00,Acu-Link.com,2014-12-17 15:47:00,
2014-12-17 11:02:00,52.2,41.6,29.70,SSW,202,13.0,-999.0,67,-99.99,,,0.00,Acu-Link.com,2014-12-17 16:02:00,
2014-12-17 11:17:00,51.6,40.6,29.70,SW,225,15.5,-999.0,66,-99.99,,,0.00,Acu-Link.com,2014-12-17 16:17:00,
2014-12-17 11:32:00,52.7,41.3,29.69,NNW,337,9.9,-999.0,65,-99.99,,,0.00,Acu-Link.com,2014-12-17 16:32:00,
2014-12-17 11:48:00,52.2,40.4,29.69,NW,315,9.9,-999.0,64,-99.99,,,0.00,Acu-Link.com,2014-12-17 16:48:00,
2014-12-17 12:03:00,54.3,40.3,29.69,WNW,292,9.4,-999.0,59,-99.99,,,0.00,Acu-Link.com,2014-12-17 17:03:00,
2014-12-17 12:18:00,53.2,40.9,29.69,West,270,13.0,-999.0,63,-99.99,,,0.00,Acu-Link.com,2014-12-17 17:18:00,
2014-12-17 12:33:00,51.8,40.0,29.68,West,270,6.3,-999.0,64,-99.99,,,0.00,Acu-Link.com,2014-12-17 17:33:00,
2014-12-17 12:48:00,51.3,40.3,29.69,WNW,292,5.3,-999.0,66,-99.99,,,0.00,Acu-Link.com,2014-12-17 17:48:00,
2014-12-17 13:04:00,50.4,39.5,29.69,North,0,5.3,-999.0,66,-99.99,,,0.00,Acu-Link.com,2014-12-17 18:04:00,
2014-12-17 13:19:00,50.7,39.0,29.69,West,270,6.3,-999.0,64,-99.99,,,0.00,Acu-Link.com,2014-12-17 18:19:00,
2014-12-17 13:34:00,50.2,37.7,29.69,West,270,8.3,-999.0,62,-99.99,,,0.00,Acu-Link.com,2014-12-17 18:34:00,
2014-12-17 13:49:00,52.7,37.9,29.68,WSW,247,8.3,-999.0,57,-99.99,,,0.00,Acu-Link.com,2014-12-17 18:49:00,
2014-12-17 14:04:00,50.4,34.8,29.69,NW,315,9.4,-999.0,55,-99.99,,,0.00,Acu-Link.com,2014-12-17 19:04:00,
2014-12-17 14:20:00,50.5,34.9,29.68,NNW,337,4.2,-999.0,55,-99.99,,,0.00,Acu-Link.com,2014-12-17 19:20:00,
2014-12-17 14:35:00,51.4,34.8,29.69,East,90,7.3,-999.0,53,-99.99,,,0.00,Acu-Link.com,2014-12-17 19:35:00,
2014-12-17 14:50:00,50.7,33.7,29.70,West,270,15.5,-999.0,52,-99.99,,,0.00,Acu-Link.com,2014-12-17 19:50:00,
2014-12-17 15:05:00,50.5,34.0,29.70,West,270,6.3,-999.0,53,-99.99,,,0.00,Acu-Link.com,2014-12-17 20:05:00,
2014-12-17 15:21:00,49.8,33.8,29.70,WNW,292,10.9,-999.0,54,-99.99,,,0.00,Acu-Link.com,2014-12-17 20:21:00,
2014-12-17 15:36:00,49.1,33.6,29.71,West,270,6.8,-999.0,55,-99.99,,,0.00,Acu-Link.com,2014-12-17 20:36:00,
2014-12-17 15:51:00,48.9,32.1,29.70,NW,315,4.7,-999.0,52,-99.99,,,0.00,Acu-Link.com,2014-12-17 20:51:00,
2014-12-17 16:06:00,47.3,31.5,29.70,WNW,292,11.4,-999.0,54,-99.99,,,0.00,Acu-Link.com,2014-12-17 21:06:00,
2014-12-17 16:21:00,46.8,31.9,29.71,WNW,292,9.4,-999.0,56,-99.99,,,0.00,Acu-Link.com,2014-12-17 21:21:00,
2014-12-17 16:37:00,45.9,31.1,29.73,WNW,292,5.3,-999.0,56,-99.99,,,0.00,Acu-Link.com,2014-12-17 21:37:00,
2014-12-17 16:52:00,44.8,30.9,29.73,WNW,292,5.3,-999.0,58,-99.99,,,0.00,Acu-Link.com,2014-12-17 21:52:00,
2014-12-17 17:07:00,44.2,30.8,29.74,WNW,292,4.7,-999.0,59,-99.99,,,0.00,Acu-Link.com,2014-12-17 22:07:00,
2014-12-17 17:22:00,43.7,30.7,29.73,West,270,6.8,-999.0,60,-99.99,,,0.00,Acu-Link.com,2014-12-17 22:22:00,
2014-12-17 17:37:00,43.2,29.9,29.74,SW,225,4.2,-999.0,59,-99.99,,,0.00,Acu-Link.com,2014-12-17 22:37:00,
2014-12-17 17:53:00,42.6,29.3,29.74,West,270,4.7,-999.0,59,-99.99,,,0.00,Acu-Link.com,2014-12-17 22:53:00,
2014-12-17 18:08:00,42.1,29.6,29.75,West,270,4.2,-999.0,61,-99.99,,,0.00,Acu-Link.com,2014-12-17 23:08:00,
2014-12-17 18:23:00,41.5,29.5,29.75,WNW,292,5.3,-999.0,62,-99.99,,,0.00,Acu-Link.com,2014-12-17 23:23:00,
2014-12-17 18:38:00,41.0,29.4,29.76,WNW,292,7.3,-999.0,63,-99.99,,,0.00,Acu-Link.com,2014-12-17 23:38:00,
2014-12-17 18:54:00,40.6,29.0,29.76,NW,315,8.3,-999.0,63,-99.99,,,0.00,Acu-Link.com,2014-12-17 23:54:00,
2014-12-17 19:09:00,40.1,28.9,29.77,West,270,7.3,-999.0,64,-99.99,,,0.00,Acu-Link.com,2014-12-18 00:09:00,